Change the Weather History Date:

Thursday, January 24, 2013

  Actual Average Record
Temperature  
Mean Temperature 17 °F 25 °F  
Max Temperature 26 °F 34 °F 45 °F (2006)
Min Temperature 8 °F 17 °F -8 °F (2003)
Degree Days  
Heating Degree Days 48 40  
Month to date heating degree days 916 956  
Since 1 July heating degree days 2969 3237  
Cooling Degree Days 0 0  
Month to date cooling degree days 0 0  
Year to date cooling degree days 0 0  
Moisture  
Dew Point 3 °F    
Average Humidity 55    
Maximum Humidity 69    
Minimum Humidity 40    
Precipitation  
Precipitation 0.00 in 0.05 in 0.06 in (1950)
Month to date precipitation 1.21 1.69  
Year to date precipitation 1.21 1.69  
Sea Level Pressure  
Sea Level Pressure 30.50 in    
Wind  
Wind Speed 12 mph (ENE)    
Max Wind Speed 22 mph    
Max Gust Speed 26 mph    
Visibility 10 miles    
Events      
T = Trace of Precipitation, MM = Missing Value Source: NWS Daily Summary

Daily Weather History Graph

Daily Weather History Graph

Search for Another Location

Airport or City:

Trip Planner

Search our weather history database for the weather conditions in past years. The results will help you decide how hot, cold, wet, or windy it might be!

Date:

Astronomy

Jan. 24, 2013 Rise Set
Actual Time 7:08 AM CST 5:02 PM CST
Civil Twilight 6:38 AM CST 5:32 PM CST
Nautical Twilight 6:06 AM CST 6:04 PM CST
Astronomical Twilight 5:33 AM CST 6:37 PM CST
Moon 3:04 PM CST (1/24) 5:05 AM CST (1/24)
Length of Visible Light 10h 53m
Length of Day
9h 54m
Waxing Gibbous, 94% of the Moon is Illuminated
Jan 24
Waxing Gibbous
Jan 26
Full
Feb 3
Last Quarter
Feb 10
New
Feb 17
First Quarter

Hourly Weather History & Observations

Time (CST) Temp. Windchill Dew Point Humidity Pressure Visibility Wind Dir Wind Speed Gust Speed Precip Events Conditions
12:53 AM 17.1 °F 0.6 °F 8.1 °F 68% 30.38 in 10.0 mi North 19.6 mph 25.3 mph N/A   Mostly Cloudy
1:08 AM 15.8 °F -1.1 °F 6.8 °F 68% 30.36 in 10.0 mi North 19.6 mph - N/A   Scattered Clouds
1:53 AM 14.0 °F -2.5 °F 3.0 °F 62% 30.43 in 10.0 mi NNW 17.3 mph - N/A   Clear
2:53 AM 10.9 °F -5.9 °F -0.0 °F 61% 30.46 in 10.0 mi North 16.1 mph - N/A   Clear
3:53 AM 10.0 °F -7.6 °F -0.9 °F 61% 30.47 in 10.0 mi North 17.3 mph - N/A   Clear
4:53 AM 9.0 °F -7.3 °F -2.0 °F 61% 30.51 in 10.0 mi North 13.8 mph - N/A   Clear
5:53 AM 9.0 °F -6.6 °F -0.9 °F 64% 30.55 in 10.0 mi North 12.7 mph - N/A   Clear
6:53 AM 8.1 °F -7.0 °F -2.0 °F 64% 30.56 in 10.0 mi North 11.5 mph - N/A   Clear
7:53 AM 9.0 °F -5.1 °F -0.9 °F 64% 30.59 in 10.0 mi North 10.4 mph - N/A   Clear
8:53 AM 12.0 °F -0.4 °F -0.0 °F 59% 30.63 in 10.0 mi NNE 9.2 mph - N/A   Clear
9:53 AM 15.1 °F 2.5 °F 1.9 °F 56% 30.65 in 10.0 mi NNE 10.4 mph - N/A   Clear
10:53 AM 19.0 °F 8.2 °F 5.0 °F 54% 30.64 in 10.0 mi NNE 9.2 mph - N/A   Clear
11:53 AM 21.0 °F 11.4 °F 7.0 °F 55% 30.61 in 10.0 mi East 8.1 mph - N/A   Clear
12:53 PM 23.0 °F 15.8 °F 6.1 °F 48% 30.58 in 10.0 mi ESE 5.8 mph - N/A   Clear
1:53 PM 24.1 °F 14.4 °F 5.0 °F 44% 30.55 in 10.0 mi East 9.2 mph - N/A   Clear
2:53 PM 25.0 °F 13.6 °F 3.0 °F 39% 30.55 in 10.0 mi East 12.7 mph - N/A   Clear
3:53 PM 24.1 °F 13.7 °F 3.0 °F 40% 30.53 in 10.0 mi ESE 10.4 mph - N/A   Clear
4:53 PM 23.0 °F 12.4 °F 3.9 °F 44% 30.51 in 10.0 mi East 10.4 mph - N/A   Clear
5:53 PM 21.9 °F 12.5 °F 6.1 °F 51% 30.50 in 10.0 mi East 8.1 mph - N/A   Clear
6:53 PM 21.9 °F 11.0 °F 5.0 °F 48% 30.48 in 10.0 mi East 10.4 mph - N/A   Clear
7:53 PM 21.0 °F 9.9 °F 6.1 °F 53% 30.45 in 10.0 mi ESE 10.4 mph - N/A   Clear
8:53 PM 21.9 °F 9.8 °F 6.1 °F 51% 30.43 in 10.0 mi ESE 12.7 mph - N/A   Clear
9:53 PM 21.9 °F 10.4 °F 5.0 °F 48% 30.40 in 10.0 mi ESE 11.5 mph - N/A   Clear
10:53 PM 21.9 °F 9.2 °F 3.9 °F 46% 30.39 in 10.0 mi ESE 13.8 mph - N/A   Mostly Cloudy
11:53 PM 21.9 °F 10.4 °F 3.9 °F 46% 30.38 in 10.0 mi SE 11.5 mph - N/A   Partly Cloudy